HVDC transfer

From www.emi.ea.govt.nz provided by the Electricity Authority (New Zealand)
Run at: 20240519053307

Parameters
Date range,25 Apr 2024 - 25 Apr 2024
Time scale,Trading period
Show,Average flow (MW)

Period start,Period end,Trading period,Direction,Energy transfer (GWh),Peak flow (MW),Average flow (MW)
25/04/2024 00:00:00,25/04/2024 00:30:00,1,Southward at Benmore,-0.027,-54,-54
25/04/2024 00:30:00,25/04/2024 01:00:00,2,Southward at Benmore,-0.058,-116,-116
25/04/2024 01:00:00,25/04/2024 01:30:00,3,Southward at Benmore,-0.043,-86,-86
25/04/2024 01:30:00,25/04/2024 02:00:00,4,Southward at Benmore,-0.086,-172,-172
25/04/2024 02:00:00,25/04/2024 02:30:00,5,Southward at Benmore,-0.121,-242,-242
25/04/2024 02:30:00,25/04/2024 03:00:00,6,Southward at Benmore,-0.118,-237,-237
25/04/2024 03:00:00,25/04/2024 03:30:00,7,Southward at Benmore,-0.111,-223,-223
25/04/2024 03:30:00,25/04/2024 04:00:00,8,Southward at Benmore,-0.110,-220,-220
25/04/2024 04:00:00,25/04/2024 04:30:00,9,Southward at Benmore,-0.106,-212,-212
25/04/2024 04:30:00,25/04/2024 05:00:00,10,Southward at Benmore,-0.105,-210,-210
25/04/2024 05:00:00,25/04/2024 05:30:00,11,Southward at Benmore,-0.103,-206,-206
25/04/2024 05:30:00,25/04/2024 06:00:00,12,Southward at Benmore,-0.046,-92,-92
25/04/2024 06:00:00,25/04/2024 06:30:00,13,Southward at Benmore,-0.057,-114,-114
25/04/2024 06:30:00,25/04/2024 07:00:00,14,Southward at Benmore,-0.032,-65,-65
25/04/2024 07:00:00,25/04/2024 07:30:00,15,Northward at Haywards,0.007,14,14
25/04/2024 07:30:00,25/04/2024 08:00:00,16,Northward at Haywards,0.039,78,78
25/04/2024 08:00:00,25/04/2024 08:30:00,17,Northward at Haywards,0.054,107,107
25/04/2024 08:30:00,25/04/2024 09:00:00,18,Northward at Haywards,0.104,207,207
25/04/2024 09:00:00,25/04/2024 09:30:00,19,Northward at Haywards,0.107,214,214
25/04/2024 09:30:00,25/04/2024 10:00:00,20,Northward at Haywards,0.111,222,222
25/04/2024 10:00:00,25/04/2024 10:30:00,21,Northward at Haywards,0.121,241,241
25/04/2024 10:30:00,25/04/2024 11:00:00,22,Northward at Haywards,0.112,223,223
25/04/2024 11:00:00,25/04/2024 11:30:00,23,Northward at Haywards,0.109,218,218
25/04/2024 11:30:00,25/04/2024 12:00:00,24,Northward at Haywards,0.119,237,237
25/04/2024 12:00:00,25/04/2024 12:30:00,25,Northward at Haywards,0.116,232,232
25/04/2024 12:30:00,25/04/2024 13:00:00,26,Northward at Haywards,0.105,210,210
25/04/2024 13:00:00,25/04/2024 13:30:00,27,Northward at Haywards,0.122,243,243
25/04/2024 13:30:00,25/04/2024 14:00:00,28,Northward at Haywards,0.096,191,191
25/04/2024 14:00:00,25/04/2024 14:30:00,29,Northward at Haywards,0.092,183,183
25/04/2024 14:30:00,25/04/2024 15:00:00,30,Northward at Haywards,0.112,223,223
25/04/2024 15:00:00,25/04/2024 15:30:00,31,Northward at Haywards,0.126,251,251
25/04/2024 15:30:00,25/04/2024 16:00:00,32,Northward at Haywards,0.118,236,236
25/04/2024 16:00:00,25/04/2024 16:30:00,33,Northward at Haywards,0.123,245,245
25/04/2024 16:30:00,25/04/2024 17:00:00,34,Northward at Haywards,0.135,269,269
25/04/2024 17:00:00,25/04/2024 17:30:00,35,Northward at Haywards,0.139,277,277
25/04/2024 17:30:00,25/04/2024 18:00:00,36,Northward at Haywards,0.142,283,283
25/04/2024 18:00:00,25/04/2024 18:30:00,37,Northward at Haywards,0.137,274,274
25/04/2024 18:30:00,25/04/2024 19:00:00,38,Northward at Haywards,0.128,256,256
25/04/2024 19:00:00,25/04/2024 19:30:00,39,Northward at Haywards,0.123,246,246
25/04/2024 19:30:00,25/04/2024 20:00:00,40,Northward at Haywards,0.140,279,279
25/04/2024 20:00:00,25/04/2024 20:30:00,41,Northward at Haywards,0.137,273,273
25/04/2024 20:30:00,25/04/2024 21:00:00,42,Northward at Haywards,0.116,231,231
25/04/2024 21:00:00,25/04/2024 21:30:00,43,Northward at Haywards,0.103,206,206
25/04/2024 21:30:00,25/04/2024 22:00:00,44,Northward at Haywards,0.113,225,225
25/04/2024 22:00:00,25/04/2024 22:30:00,45,Northward at Haywards,0.017,34,34
25/04/2024 22:30:00,25/04/2024 23:00:00,46,Southward at Benmore,-0.071,-143,-143
25/04/2024 23:00:00,25/04/2024 23:30:00,47,Southward at Benmore,-0.070,-141,-141
25/04/2024 23:30:00,26/04/2024 00:00:00,48,Southward at Benmore,-0.115,-231,-231
